User: anonymous   Login
Location: Fort Wayne
(41.1310°N, 85.1290°W)
Time: 23:29:13
(UTC-04:00)
Language:

CZ-2C R/B - Orbit

View from above orbital plane
View from above orbital plane
View from above satellite
View from above satellite

Ground track
Ground track

The orbit data is extracted from the following two-line orbital elements,

1 36089U 09061B   15208.13979962  .00000048  00000-0  23260-4 0  9993
2 36089 098.0696 229.5105 0082546 014.5709 030.9580 14.49470879301597
Epoch (UTC): 27 July 2015 03:21:18
Eccentricity: 0.0082546
inclination: 98.0696°
perigee height: 669 km
apogee height: 786 km
right ascension of ascending node: 229.5105°
argument of perigee: 14.5709°
revolutions per day: 14.49470879
mean anomaly at epoch: 30.9580°
orbit number at epoch: 30159

The dashed part of the orbit path shows where the satellite is in the earth's shadow,  

DLR